Showing default

AETHER-6, 67377

Orbit data source: Space-Track

AETHER-6, 67377 is a payload satellite owned by Kepler Comms (CA) in SSO that was launched on Sun, 11 Jan 2026 UTC via an FALCON 9 launch vehicle from the Air Force Western Test Range (AFWTR). Payload-class satellites include a variety of spacecraft equipped with specific instruments for various scientific and technological missions. These include communications satellites like Starlink; space stations such as the ISS; scientific satellites like the Hubble; Earth observation satellites from companies like Planet Labs, Umbra, and HawkEye 360; GPS; miniature CubeSats for education and research; and military/defense satellites.

Loading next visibility...
Identifier
67377, 2026-004Q
Orbit
SSO
Country
Flag of CACA
Related business
Manufacturer
Kepler Comms
Mission
Operational spacecraft
Bus & Motor
KEPLER GEN2B, Unknown motor
Mass
300 kg wet, 300 kg dry
Launch date (UTC)
2026-01-11 (3 months ago)
Launch vehicle
FALCON 9
Launch site
Air Force Western Test Range (AFWTR)
Object type
Payload
Rocket body
Debris
Shape & HBR
Unknown shape, 7.6 m
Radar Cross Section
RCS unknown

Expand to show TLE details & history
Last TLE update: 5 hours ago

TLE from 5 hours ago
0 AETHER-6
1 67377U 26004Q   26095.60325712  .00003870  00000-0  42630-3 0  9996
2 67377  97.8039  95.4189 0005238  19.5645 340.5771 14.88113513 12490
Epoch: 2026-04-05T14:28Z
TLE epoch observation values (Epoch: 2026-04-05T14:28:41.415Z)
Latitude
-0.00007°
Longitude
44.34004°
Altitude
603.416 km
Speed
7.56 km/s
True Right ascension
06h 21m 40s
True Declination
0° 00' 00"
Sunlit
Object was in daylight at epoch
Visualization orbit readout
Latitude
Unknown
Longitude
Unknown
Altitude
Unknown
Speed
Unknown
Apparent Right ascension
Unknown
Apparent Declination
Unknown
Sunlit
N/A
Visualization observer readout
Local Sidereal Time
00:59:50
Azimuth
Unknown
Elevation
Unknown
Doppler factor
Unknown
Orbital elements
Apogee altitude
604.511 km
Perigee altitude
597.2 km
Semi-major axis
6,978.993 km
Eccentricity
0.00052
Inclination
97.8039°
RAAN
95.4189°
Arg. of periapsis
19.5645°
True anomaly
340.55713°
Mean anomaly
340.5771°
Eccentric anomaly
340.56712°
Mean motion
3.72267 °/min
Orbital period
96.7 mins
BSTAR
0.0004263
Loading maneuver chart data...
Computing Atmospheric mass density...
Loading historical data...
Loading historical data...
Loading historical data...
Loading historical data...
Loading historical data...
Loading historical data...
Loading historical data...

Documentation

Showing up to 5 results
|